Home   Weather   Chernobyl   Past weeks
Flag for Ukraine

Past Weather in Chernobyl, Ukraine — Yesterday and Last 2 Weeks

Now
36 °F

Chilly.


Feels Like: 28 °F
Forecast: 39 / 32 °F
Wind: 10 mph from Northwest

Location: Hostomel

Current Time: Jan 25, 2020 at 7:37:34 pm

Latest Report: Jan 25, 2020 at 6:30 pm


Visibility: N/A

Pressure: 30.01 "Hg

Humidity: 81%

Dew Point: 30 °F

Location of ChernobylLocation

Past Weather in Chernobyl — Graph

°F

Chernobyl Temperature Yesterday

Maximum temperature yesterday: 39 °F (at 3:30 pm)
Minimum temperature yesterday: 30 °F (at 12:30 am)
Average temperature yesterday: 34 °F

High & Low Weather Summary for the Past Weeks

 TemperatureHumidityPressure
High45 °F (Jan 11, 12:30 pm)100% (Jan 10, 6:00 pm)30.66 "Hg (Jan 10, 6:00 pm)
Low28 °F (Jan 15, 4:00 am)53% (Jan 21, 12:30 pm)29.77 "Hg (Jan 22, 4:34 pm)
Average34 °F86%30.24 "Hg
* Reported Jan 10 6:00 pm — Jan 25 6:00 pm, Chernobyl. Weather by CustomWeather, © 2020

Note: Actual official high and low records may vary slightly from our data, if they occured in-between our weather recording intervals... More about our weather records

Chernobyl Weather History for the Previous 24 Hours

Scroll right to see more
 ConditionsComfort  
Time TempWeatherWind HumidityBarometerVisibility
6:00 pm
Sat, Jan 25
36 °FChilly.8 mph81%29.98 "HgN/A
5:30 pm36 °FChilly.10 mph81%29.98 "HgN/A
5:00 pm36 °FChilly.10 mph81%29.98 "HgN/A
4:30 pm36 °FChilly.13 mph81%29.95 "HgN/A
4:00 pm36 °FChilly.10 mph75%29.95 "Hg6 mi
3:30 pm36 °FChilly.13 mph75%29.95 "HgN/A
3:00 pm36 °FChilly.10 mph75%29.95 "HgN/A
2:30 pm36 °FChilly.13 mph75%29.95 "HgN/A
2:00 pm36 °FChilly.13 mph75%29.95 "HgN/A
1:30 pm36 °FChilly.15 mph75%29.95 "HgN/A
1:00 pm36 °FChilly.13 mph75%29.95 "HgN/A
12:30 pm36 °FChilly.15 mph75%29.95 "Hg6 mi
12:00 pm36 °FChilly.13 mph75%29.95 "HgN/A
11:30 am36 °FChilly.15 mph75%29.95 "HgN/A
11:00 am34 °FChilly.13 mph81%29.95 "HgN/A
10:30 am34 °FChilly.10 mph81%29.95 "HgN/A
10:00 am34 °FChilly.13 mph75%29.95 "HgN/A
9:30 am34 °FChilly.10 mph75%29.95 "HgN/A
9:00 am34 °FChilly.13 mph75%29.95 "HgN/A
8:30 am34 °FSunny.13 mph75%29.92 "HgN/A
8:00 am34 °FChilly.13 mph75%29.92 "HgN/A
7:30 am34 °FChilly.10 mph75%29.92 "HgN/A
7:00 am34 °FChilly.10 mph75%29.92 "HgN/A
6:30 am34 °FChilly.10 mph75%29.92 "HgN/A
6:00 am34 °FChilly.13 mph75%29.92 "HgN/A
5:30 am34 °FChilly.13 mph75%29.92 "HgN/A
5:00 am34 °FChilly.13 mph70%29.92 "HgN/A
4:30 am34 °FChilly.13 mph70%29.92 "HgN/A
4:00 am34 °FChilly.10 mph70%29.92 "Hg6 mi
3:30 am34 °FChilly.8 mph65%29.92 "HgN/A
3:00 am34 °FChilly.8 mph65%29.95 "HgN/A
2:30 am34 °FChilly.10 mph65%29.95 "HgN/A
2:00 am34 °FClear.10 mph65%29.95 "HgN/A
1:30 am34 °FChilly.10 mph60%29.95 "HgN/A
1:00 am34 °FClear.13 mph60%29.95 "HgN/A
12:30 am34 °FClear.10 mph60%29.95 "HgN/A
12:00 am34 °FClear.10 mph60%29.95 "HgN/A
11:30 pm
Fri, Jan 24
34 °FClear.13 mph65%29.95 "HgN/A
10:30 pm34 °FClear.10 mph65%29.98 "HgN/A
10:00 pm34 °FClear.10 mph65%29.98 "HgN/A
9:30 pm34 °FClear.10 mph65%29.98 "HgN/A
9:00 pm34 °FClear.10 mph65%29.98 "HgN/A
8:30 pm36 °FClear.13 mph60%29.98 "HgN/A
8:00 pm36 °FClear.13 mph60%29.98 "HgN/A
7:30 pm36 °FClear.13 mph60%29.98 "HgN/A
7:00 pm36 °FClear.13 mph60%30.01 "HgN/A
Weather by CustomWeather, © 2020

See weather overview

Advertising